Blue Canyon, CA

5:54 PM PDT on May 23, 2017 (GMT -0700)
Blue Canyon-Nyack

Weather History for KBLU - October, 2011

Change the Weather History Date:

Monday, October 17, 2011

  Actual Average Record
Temperature  
Mean Temperature 64 °F -  
Max Temperature 72 °F 62 °F 80 °F (1988)
Min Temperature 57 °F 45 °F 24 °F (1971)
Degree Days  
Heating Degree Days 1    
Growing Degree Days 14 (Base 50)    
Moisture  
Dew Point 37 °F    
Average Humidity 37    
Maximum Humidity 49    
Minimum Humidity 28    
Precipitation  
Precipitation 0.00 in - - ()
Sea Level Pressure  
Sea Level Pressure 30.07 in    
Wind  
Wind Speed 3 mph (NE)    
Max Wind Speed 6 mph    
Max Gust Speed -    
Visibility 10 miles    
Events      
Averages and records for this station are not official NWS values.
T = Trace of Precipitation, MM = Missing Value Source: NWS Daily Summary

Daily Weather History Graph

Daily Weather History Graph

Search for Another Location

Airport or City:

Trip Planner

Search our weather history database for the weather conditions in past years. The results will help you decide how hot, cold, wet, or windy it might be!

Date:

Astronomy

Oct. 17, 2011 Rise Set
Actual Time 7:14 AM PDT 6:21 PM PDT
Civil Twilight 6:47 AM PDT 6:48 PM PDT
Nautical Twilight 6:16 AM PDT 7:19 PM PDT
Astronomical Twilight 5:45 AM PDT 7:50 PM PDT
Moon 10:08 PM PDT (10/17) 12:23 PM PDT (10/17)
Length of Visible Light 12h 00m
Length of Day
11h 06m
Waning Gibbous, 73% of the Moon is Illuminated
Oct 17
Waning Gibbous
Oct 19
Last Quarter
Oct 26
New
Nov 2
First Quarter
Nov 10
Full

Hourly Weather History & Observations

Time (PDT) Temp. Dew Point Humidity Pressure Visibility Wind Dir Wind Speed Gust Speed Precip Events Conditions
12:52 AM 59.0 °F 33.1 °F 38% 30.08 in 10.0 mi NE 3.5 mph - N/A   Clear
1:52 AM 59.0 °F 30.9 °F 35% 30.08 in 10.0 mi NE 4.6 mph - N/A   Clear
2:52 AM 59.0 °F 34.0 °F 39% 30.07 in 10.0 mi NE 3.5 mph - N/A   Clear
3:52 AM 60.1 °F 34.0 °F 38% 30.07 in 10.0 mi East 3.5 mph - N/A   Clear
4:52 AM 60.1 °F 34.0 °F 38% 30.07 in 10.0 mi ENE 3.5 mph - N/A   Clear
5:52 AM 59.0 °F 33.1 °F 38% 30.10 in 10.0 mi Calm Calm - N/A   Clear
6:52 AM 59.0 °F 33.1 °F 38% 30.11 in 10.0 mi ENE 4.6 mph - N/A   Clear
7:52 AM 57.9 °F 35.1 °F 42% 30.13 in 10.0 mi NE 5.8 mph - N/A   Clear
8:52 AM 60.1 °F 37.0 °F 42% 30.12 in 10.0 mi NE 5.8 mph - N/A   Clear
9:52 AM 64.9 °F 36.0 °F 34% 30.11 in 10.0 mi Calm Calm - N/A   Clear
10:52 AM 66.9 °F 33.1 °F 28% 30.11 in 10.0 mi Calm Calm - N/A   Clear
11:52 AM 68.0 °F 36.0 °F 31% 30.09 in 10.0 mi Calm Calm - N/A   Clear
12:52 PM 69.1 °F 37.0 °F 31% 30.08 in 10.0 mi Calm Calm - N/A   Clear
1:52 PM 70.0 °F 39.0 °F 32% 30.06 in 10.0 mi Variable 4.6 mph - N/A   Clear
2:52 PM 71.1 °F 41.0 °F 34% 30.04 in 10.0 mi Variable 3.5 mph - N/A   Clear
3:52 PM 71.1 °F 42.1 °F 35% 30.02 in 10.0 mi Calm Calm - N/A   Clear
4:52 PM 69.1 °F 44.1 °F 40% 30.03 in 10.0 mi West 3.5 mph - N/A   Clear
5:52 PM 66.9 °F 46.9 °F 49% 30.04 in 6.0 mi WNW 4.6 mph - N/A   Haze
6:52 PM 63.0 °F 39.9 °F 43% 30.05 in 10.0 mi Variable 4.6 mph - N/A   Clear
7:52 PM 62.1 °F 36.0 °F 38% 30.07 in 10.0 mi East 3.5 mph - N/A   Clear
8:52 PM 62.1 °F 37.0 °F 39% 30.06 in 10.0 mi NE 4.6 mph - N/A   Clear
9:52 PM 61.0 °F 36.0 °F 39% 30.05 in 10.0 mi ENE 3.5 mph - N/A   Clear
10:52 PM 64.0 °F 37.0 °F 37% 30.03 in 10.0 mi ENE 3.5 mph - N/A   Clear
11:52 PM 63.0 °F 37.9 °F 40% 30.03 in 10.0 mi Calm Calm - N/A   Clear